TimeMDT,TemperatureF,Dew PointF,Humidity,Sea Level PressureIn,VisibilityMPH,Wind Direction,Wind SpeedMPH,Gust SpeedMPH,PrecipitationIn,Events,Conditions,WindDirDegrees,DateUTC
12:53 AM,55.0,37.9,53,29.82,10.0,SSW,9.2,-,N/A,,Partly Cloudy,210,2012-10-13 06:53:00
1:53 AM,54.0,39.9,59,29.83,10.0,SSW,15.0,20.7,N/A,,Clear,200,2012-10-13 07:53:00
2:53 AM,51.1,42.1,71,29.86,10.0,South,6.9,-,N/A,,Clear,190,2012-10-13 08:53:00
3:53 AM,50.0,41.0,71,29.86,10.0,South,12.7,-,N/A,,Clear,190,2012-10-13 09:53:00
4:53 AM,48.9,41.0,74,29.90,10.0,South,9.2,-,N/A,,Scattered Clouds,190,2012-10-13 10:53:00
5:53 AM,48.0,41.0,77,29.93,10.0,South,8.1,-,N/A,,Scattered Clouds,190,2012-10-13 11:53:00
6:53 AM,46.9,39.9,77,29.96,10.0,South,9.2,-,N/A,,Partly Cloudy,190,2012-10-13 12:53:00
7:53 AM,46.0,39.9,79,30.01,10.0,SW,4.6,-,N/A,,Partly Cloudy,220,2012-10-13 13:53:00
8:53 AM,48.0,39.0,71,30.04,10.0,SSW,4.6,-,N/A,,Overcast,210,2012-10-13 14:53:00
9:53 AM,48.9,39.0,69,30.06,10.0,NNE,4.6,-,N/A,,Overcast,30,2012-10-13 15:53:00
10:02 AM,48.2,39.2,71,30.11,10.0,Variable,5.8,-,N/A,,Overcast,0,2012-10-13 16:02:00
10:53 AM,52.0,39.9,63,30.07,10.0,SW,11.5,-,N/A,,Overcast,220,2012-10-13 16:53:00
11:32 AM,53.6,41.0,62,30.14,10.0,SW,12.7,21.9,N/A,,Overcast,220,2012-10-13 17:32:00
11:53 AM,53.1,42.1,66,30.08,10.0,SSW,16.1,23.0,N/A,,Overcast,210,2012-10-13 17:53:00
12:02 PM,53.6,42.8,67,30.13,10.0,SSW,16.1,23.0,N/A,,Overcast,210,2012-10-13 18:02:00
12:53 PM,54.0,42.1,64,30.09,10.0,SW,11.5,-,N/A,,Overcast,230,2012-10-13 18:53:00
2:53 PM,60.1,34.0,38,30.08,10.0,WSW,12.7,-,N/A,,Clear,240,2012-10-13 20:53:00
3:53 PM,61.0,36.0,39,30.09,10.0,West,3.5,-,N/A,,Clear,270,2012-10-13 21:53:00
4:53 PM,62.1,34.0,35,30.09,10.0,WSW,9.2,-,N/A,,Clear,250,2012-10-13 22:53:00
6:53 PM,55.9,42.1,60,30.14,10.0,SSW,8.1,-,N/A,,Mostly Cloudy,200,2012-10-14 00:53:00
8:53 PM,53.1,39.9,61,30.19,10.0,South,5.8,-,N/A,,Clear,180,2012-10-14 02:53:00
9:53 PM,52.0,39.9,63,30.23,10.0,North,3.5,-,N/A,,Partly Cloudy,10,2012-10-14 03:53:00
11:53 PM,48.0,37.9,68,30.22,10.0,SSW,6.9,-,N/A,,Clear,200,2012-10-14 05:53:00